C/2019 N1 ( ATLAS )

Japanese version
Home page
Updated on November 10, 2019

---------------------------------------------------------------------

* Profile

Discovery Date July 5, 2019
Magnitude 18.6 mag
Discoverer Asteroid Terrestrial-Impact Last Alert System (ATLAS) search program

* Pictures

* Orbital Elements

Epoch 2020 Dec. 17.0 TT = JDT 2459200.5
T 2020 Dec. 1.78049 TT                                  Williams
q   1.7044143            (2000.0)            P               Q
z  +0.0000307      Peri.  193.44944     -0.93822379     +0.25616946
 +/-0.0000077      Node    13.57213     -0.14502572     +0.31926283
e   0.9999477      Incl.   82.42738     -0.31417138     -0.91238613
From 255 observations 2019 June 10-Nov. 1, mean residual 0".4.

* Finding Charts

* Magnitudes Graph

        m1 = 6.5 + 5 log d + 10.0 log r

---------------------------------------------------------------------

The orbital elements are published on M.P.E.C. 2019-V116.
The charts are made with StellaNavigator Ver.10 (AstroArts).
The magnitudes graphs are made with Comet for Windows.

---------------------------------------------------------------------

Copyright(C) Seiichi Yoshida (comet@aerith.net). All rights reserved.